Regional Weather Roundup
Issued by NWS

Home | Current Version | Previous Version | Text Only | Print | Product List | Glossary On
Versions: 1 2 3 4 5 6 7 8 9 10 11 12 13 14 15 16 17 18 19 20 21 22 23 24 25 26 27 28 29 30 31 32 33 34 35 36 37 38 39 40 41 42 43 44 45 46 47 48 49 50
814
ASUS43 KMKX 271021
RWRWI

WISCONSIN REGIONAL WEATHER ROUNDUP
NATIONAL WEATHER SERVICE MILWAUKEE/SULLIVAN WI
500 AM CDT THU APR 27 2017

NOTE: "FAIR" INDICATES FEW OR NO CLOUDS BELOW 12,000 FEET WITH NO
SIGNIFICANT WEATHER AND/OR OBSTRUCTIONS TO VISIBILITY.

WIZ001-002-006>008-014>016-023>028-271100-
NORTHWEST WISCONSIN

CITY           SKY/WX    TMP DP  RH WIND       PRES   REMARKS
SUPERIOR ARPT  CLOUDY    26  25  96 CALM      29.58S
ASHLAND        LGT SNOW  27  26  96 N8        29.54F VSB 3/4 WCI  19
HAYWARD        FLURRIES  28  24  85 N9        29.51F WCI  19
SIREN          CLOUDY    29  27  90 CALM      29.55S
CUMBERLAND     CLOUDY    30  27  86 N10       29.50F WCI  21
RICE LAKE      CLOUDY    32  28  87 N8        29.52S WCI  25
CHETEK         CLOUDY    32  29  87 N8        29.50S WCI  25
LADYSMITH      CLOUDY    31  27  84 N9        29.49F WCI  23
EAU CLAIRE     CLOUDY    34  27  75 N10       29.47F WCI  26
MENOMONIE      CLOUDY    34  30  85 NW8       29.49F WCI  27
NEW RICHMOND   CLOUDY    33  28  85 N8        29.52S WCI  25
OSCEOLA        CLOUDY    33  29  88 NW8       29.56S WCI  25
$$

WIZ003>005-009-010-017-018-271100-
NORTH CENTRAL WISCONSIN

CITY           SKY/WX    TMP DP  RH WIND       PRES   REMARKS
MANITOWISH WTR CLOUDY    27  27 100 N7        29.45S WCI  20
ARBOR VITAE    LGT SNOW  32  30  92 N10       29.42S WCI  23
WOODRUFF       LGT SNOW  32  30  92 N10       29.42S WCI  23
RHINELANDER    LGT SNOW  31  29  92 MISG      29.41F FOG
EAGLE RIVER    MIX PCPN  29  28  96 N8        29.42S WCI  21
LAND O LAKES   LGT SNOW  28  27  94 N8        29.45R WCI  20
PHILLIPS       CLOUDY    28  26  91 N9        29.45F WCI  19
TOMAHAWK       LGT SNOW  30  28  92 N7        29.43S WCI  23
MEDFORD        MIX PCPN  31  28  92 N14       29.41F WCI  20
MERRILL        MIX PCPN  32  31  98 N10       29.41F WCI  24
$$

WIZ029-030-035-036-043>047-271100-
CENTRAL WISCONSIN

CITY           SKY/WX    TMP DP  RH WIND       PRES   REMARKS
WAUSAU         LGT RAIN  34  32  92 N13       29.37F WCI  25
MOSINEE        LGT RAIN  34  34 100 N13       29.39F WCI  25
MARSHFIELD     LGT RAIN  34  32  92 N13       29.39F WCI  25
STEVENS POINT  LGT RAIN  35  35 100 N6        29.38F WCI  30
WAUPACA        RAIN      43  41  93 NW10      29.36F
WAUTOMA        RAIN      41  40  96 NW8       29.37
WISC RAPIDS    LGT RAIN  37  36  96 N12       29.40R WCI  29
CAMP DOUGLAS   RAIN      37  36  93 NW8       29.40F WCI  31
$$

WIZ011>013-019>022-031-037>040-048>050-271100-
NORTHEAST WISCONSIN

CITY           SKY/WX    TMP DP  RH WIND       PRES   REMARKS
ANTIGO         LGT RAIN  33  32  97 N10       29.38F WCI  25
SHAWANO        RAIN      43  40  90 N13       29.36F
OCONTO         CLOUDY    40  39  95 N10       29.34F WCI  34
STURGEON BAY   LGT RAIN  41  41 100 N16       29.33F
GREEN BAY      RAIN      47  47 100 N12       29.33F FOG
MANITOWOC      CLOUDY    50  49  96 N7        29.30F
APPLETON       RAIN      43  43 100 NW9       29.32F
CLINTONVILLE   RAIN      41  41 100 N8        29.35F
OSHKOSH        RAIN      44  43  96 NW8       29.32F FOG
$$

WIZ032>034-041-042-053>061-271100-
SOUTHWEST WISCONSIN

CITY           SKY/WX    TMP DP  RH WIND       PRES   REMARKS
LA CROSSE      LGT RAIN  39  35  86 NW16      29.45S WCI  30
SPARTA         LGT RAIN  36  35  96 NW7       29.43F WCI  30
VIROQUA        CLOUDY    37  36  97 NW9       29.42R WCI  30
BOSCOBEL       RAIN      41  37  86 NW8       29.44S
PRAIRIE DU CHI RAIN      38  36  95 W10G20    29.46S WCI  30
PLATTEVILLE    CLOUDY    40  40 100 W12       29.43R WCI  33
$$

WIZ056-057-062-063-064-067-068-271100-
SOUTH CENTRAL WISCONSIN

CITY           SKY/WX    TMP DP  RH WIND       PRES   REMARKS
REEDSBURG      RAIN      39  39 100 NW8       29.39F WCI  33
BARABOO/DELLS  RAIN      39  38  96 NW8       29.38F WCI  33
LONE ROCK      LGT RAIN  41  37  86 NW10      29.41S FOG
MINERAL POINT  RAIN      41  41 100 NW9       29.40R
MADISON        RAIN      41  39  93 NW8       29.36F FOG
MIDDLETON      CLOUDY    42  41  97 NW9       29.38S
WATERTOWN      LGT RAIN  43  43 100 NW10      29.34R
MONROE         LGT RAIN  41  41 100 NW12G18   29.36F
JANESVILLE     LGT RAIN  45  45 100 N10       29.33F
$$

WIZ051-052-058>065-066-070>072-271100-
SOUTHEAST WISCONSIN

CITY           SKY/WX    TMP DP  RH WIND       PRES   REMARKS
MILWAUKEE      LGT RAIN  58  57  97 S9        29.29F FOG
WAUKESHA       RAIN      46  46 100 NW7       29.31F
MILWAUKEE/TIMM LGT RAIN  50  46  87 N3        29.30F
RACINE         RAIN      53  51  93 S14       29.30F FOG
KENOSHA        RAIN      57  56  96 S13       29.28F FOG
FOND DU LAC    RAIN      45  41  86 NW12      29.32F
SHEBOYGAN      LGT RAIN  50  48  93 N7        29.29F FOG
WEST BEND      LGT RAIN  46  46 100 NW5       29.30F
JUNEAU         RAIN      42  41  97 NW8       29.35S
$$

LSZ147-162-271100-
LAKE SUPERIOR

STATION/POSITION TIME  TEMP    WIND        PRES    WAVE
                       AIR SEA DIR/SP/G            HT/PER
                 (UTC) (F)     (DEG/KT/KT) (MB)    (FT/S)
DEVILS ISLAND    1000   27      30/  8/  9 1002.0S
SAXON HARBOR     0940   30      20/ 12/ 13 1000.7S
$$

LMZ867-665-643>646-271100-
LAKE MICHIGAN

STATION/POSITION TIME  TEMP    WIND        PRES    WAVE
                       AIR SEA DIR/SP/G            HT/PER
                 (UTC) (F)     (DEG/KT/KT) (MB)    (FT/S)
CHAMBERS ISLAND  0940   41     360/ 10/ 12  993.9F
N MID LAKE BUOY  0950   39 37   40/ 10/ 12  994.6F   1/ 4
NORTHPORT PIER   0940   39     340/ 13/ 14  994.2F
SISTER BAY       0936   39      10/  9/ 13   N/A
KEWAUNEE LAKESHO 0954   47     330/  7/ 11  992.5F
SHEBOYGAN LAKESH 1000   50     360/  6/  7  991.6F
PORT WASHINGTON  0930   50      80/  3/  7  993.9F
MILWAUKEE LAKESH 1000   50      50/  2/  3   N/A
S MID LAKE BUOY  0950   48 42  120/ 12/ 14  993.5F   1
KENOSHA   LAKESH 1000   49     170/ 14/ 19  992.2
$$

TC  - TEMPERATURE IN CELSIUS
VSB - VISIBILITY IN STATUTE MILES
WCI - WIND CHILL INDEX
HX  - HEAT INDEX





USA.gov is the U.S. government's official web portal to all federal, state and local government web resources and services.